User: anonymous   Login
Location: Phoenix
(33.4480°N, 112.0730°W)
Time: 08:36:39
(UTC-07:00)
Language:

Hubble Space Telescope - Orbit

View from above orbital plane
View from above orbital plane
View from above satellite
View from above satellite

Ground track
Ground track

The orbit data is extracted from the following two-line orbital elements,

1 20580U 90037B   18145.70653226  .00000417  00000-0  14531-4 0  9994
2 20580  28.4693 263.7182 0002490 259.2133 242.1561 15.09042489342077
Epoch (UTC): 25 May 2018 16:57:24
Eccentricity: 0.0002490
inclination: 28.4693°
perigee height: 537 km
apogee height: 541 km
right ascension of ascending node: 263.7182°
argument of perigee: 259.2133°
revolutions per day: 15.09042489
mean anomaly at epoch: 242.1561°
orbit number at epoch: 34207

The dashed part of the orbit path shows where the satellite is in the earth's shadow,  

DLR